[[{"header":{"parameterUnit":"m.s-1","parameterCategory":1,"la1":30.2991,"la2":30.254,"lo1":-89.0895,"lo2":-89.0444,"dy":0.0017,"dx":0.0017,"nx":28,"ny":28,"refTime":"2025-07-08T09:00:00:Z","depth":0,"parameterNumber":2,"parameterNumberName":"U-component_of_WINDS"},"data":[0,0,0,0,0,0,0,0,0,0,0,0,0,0,0,0,0,0,0,0,0,0,0,0,0,0,0,0,0,0,0,0,0,0,0,0,0,0,0,0,0,0,0,0,0,0,0,0,0,0,0,0,0,0,0,0,0,0,2.228,2.2281,0,2.2412,2.2414,2.2415,2.2371,2.2368,2.2365,2.2362,2.25,2.2506,2.2513,0,0,0,0,0,0,0,0,0,0,0,0,0,2.199,2.1995,2.2279,2.2281,2.2283,2.2412,2.2414,2.2416,2.2371,2.2368,2.2364,2.2361,2.2498,2.2505,2.2513,0,0,0,0,0,0,0,0,0,0,0,0,0,2.2118,2.1997,2.2279,2.2276,2.2277,2.2412,2.2414,2.2416,2.2372,2.2368,2.2363,2.2359,2.2495,2.2505,2.2514,2.266,0,0,2.2543,2.2548,0,0,0,0,0,0,0,0,2.2111,2.2129,2.2275,2.2277,2.2278,2.237,2.2362,2.2498,2.2373,2.2336,2.2362,2.2357,2.2461,2.2473,2.2507,2.2667,2.2672,2.2544,2.255,2.2554,2.2557,0,0,0,0,0,0,0,2.2102,2.2123,2.2332,2.2277,2.2279,2.2269,2.2282,2.2388,2.2421,2.2339,2.2336,2.2352,2.2461,2.2498,2.251,2.2674,2.2544,2.2552,2.2558,2.2562,2.2962,2.2966,0,0,0,0,0,0,2.2092,2.2116,2.2328,2.2336,2.2182,2.2278,2.2293,2.2345,2.242,2.2427,2.2356,2.235,2.2484,2.2499,2.2515,2.2691,2.2554,2.2563,2.2568,2.2957,2.2963,2.2968,0,0,0,0,0,0,2.2086,2.2112,2.2322,2.2225,2.2251,2.2287,2.2347,2.235,2.2387,2.2433,2.2439,2.2388,2.2481,2.2501,2.2624,2.2695,2.2567,2.2576,2.2951,2.2959,2.2965,2.3044,0,0,0,0,0,0,2.2078,2.211,2.2165,2.2227,2.2257,2.2429,2.2351,2.2356,2.2404,2.2397,2.2464,2.2471,2.2479,2.261,2.2634,2.2706,2.2583,2.2945,2.2954,2.2963,2.3036,2.3054,2.3069,0,0,0,0,0,2.2068,2.2182,2.2168,2.2194,2.2326,2.2433,2.245,2.2457,2.241,2.2466,2.2495,2.2469,2.2684,2.2623,2.265,2.2726,2.294,2.2952,2.2962,2.3028,2.305,2.3068,0,0,0,0,0,0,2.2127,2.219,2.2175,2.2312,2.2368,2.2426,2.2496,2.248,2.255,2.2541,2.2547,2.2562,2.2689,2.272,2.2651,2.2871,2.2805,2.2822,2.2846,2.2868,2.2884,2.2874,2.2591,0,0,0,0,0,2.2157,2.2238,2.2288,2.2405,2.2433,2.246,2.2507,2.2507,2.2565,2.2589,2.2627,2.2685,2.2765,2.2818,2.2895,2.304,2.3055,2.3106,2.3122,2.3136,2.315,2.323,2.3253,2.3004,2.3004,2.3004,0,0,2.2217,2.2262,2.2312,2.2418,2.2461,2.2545,2.248,2.2572,2.2635,2.2603,2.2721,2.2752,2.2817,2.2952,2.3013,2.2981,2.3222,2.315,2.316,2.3167,2.3244,2.3267,2.3288,2.3011,2.301,2.3009,0,0,2.2372,2.2413,2.2515,2.2559,2.2625,2.2643,2.2668,2.2729,2.2747,2.2866,2.2844,2.292,2.3058,2.3105,2.3148,2.3322,2.3301,2.3347,2.3433,2.3511,2.3531,2.3549,2.3611,2.3633,2.3361,2.3361,2.3361,0,2.2439,2.2565,2.2569,2.2664,2.2711,2.2686,2.2789,2.2833,2.2921,2.2954,2.2917,2.3091,2.3133,2.3279,2.3322,2.3357,2.3386,2.3339,2.3528,2.3545,2.3562,2.3621,2.3645,2.3366,2.3366,2.3365,2.3365,0,2.2645,2.2733,2.2807,2.2892,2.2948,2.3047,2.3067,2.3123,2.312,2.3141,2.3264,2.3313,2.34,2.3435,2.3432,2.3581,2.356,2.3526,2.3459,2.3591,2.3647,2.367,2.3374,2.3372,2.337,2.3369,0,0,2.2839,2.2926,2.2954,2.2992,2.3064,2.3133,2.3231,2.3315,2.3363,2.3426,2.3508,2.3627,2.3596,2.3644,2.3647,2.3715,2.3851,2.3673,2.3674,2.3704,2.402,2.4045,2.4071,2.3838,2.3842,2.3845,2.4014,0,2.2999,2.317,2.3178,2.3335,2.3416,2.3394,2.348,2.3534,2.3557,2.3631,2.3657,2.3741,2.3693,2.3723,2.3789,2.382,2.3914,2.3808,2.3915,2.3919,2.3899,2.41,2.4127,2.4283,2.4036,2.404,2.4042,0,2.3208,2.3277,2.3441,2.3502,2.3537,2.3613,2.3692,2.3762,2.3824,2.3836,2.389,2.3883,2.3985,2.3916,2.4056,2.3984,2.4029,2.4051,2.4057,2.4067,2.3988,2.4116,2.4334,2.4357,2.4077,2.4074,2.4072,0,2.3334,2.3467,2.3583,2.3617,2.3691,2.3745,2.3779,2.3836,2.3886,2.3955,2.3989,2.4069,2.4113,2.4176,2.4191,2.4139,2.4332,2.4264,2.4346,2.4346,2.4387,2.4384,2.4615,2.4416,2.4416,2.4416,2.4415,0,2.3512,2.3613,2.364,2.3712,2.3825,2.3834,2.3946,2.3976,2.4027,2.4105,2.4091,2.4164,2.418,2.4257,2.427,2.4385,2.4405,2.4418,2.442,2.4419,2.4418,2.4448,2.4438,2.4422,2.442,2.4419,2.4418,0,2.3671,2.3693,2.3818,2.3878,2.3895,2.3976,2.4028,2.4097,2.4119,2.4218,2.4241,2.4276,2.4366,2.4388,2.4495,2.4504,2.464,2.4632,2.4619,2.4618,2.4699,2.4691,2.4958,2.4994,2.4771,2.4774,2.4775,0,2.3782,2.386,2.3928,2.3979,2.4015,2.4097,2.4148,2.416,2.4215,2.4291,2.4351,2.4439,2.451,2.4655,2.4691,2.4773,2.4767,2.4855,2.4779,2.4776,2.4769,2.4764,2.4772,2.4869,2.4871,2.4873,2.4875,0,2.3979,2.3986,2.406,2.414,2.4202,2.4265,2.4325,2.4367,2.4388,2.445,2.4541,2.4597,2.4706,2.4794,2.4877,2.4913,2.4898,2.4899,2.4922,2.4922,2.4911,2.4918,2.4658,2.4892,2.489,2.4889,2.4888,2.4888,2.4118,2.4186,2.4245,2.4329,2.4375,2.4432,2.45,2.4531,2.4607,2.4697,2.4699,2.4799,2.486,2.497,2.501,2.5089,2.5063,2.5096,2.5105,2.5113,2.512,2.4899,2.5105,2.5104,2.5104,2.5103,2.5103,0,2.4313,2.435,2.4427,2.4512,2.4578,2.4558,2.4624,2.4681,2.4769,2.4826,2.4897,2.5003,2.5088,2.5131,2.5217,2.5272,2.5267,2.5294,2.529,2.5298,2.5139,2.5111,2.5296,2.5296,2.5296,2.5296,2.5296,2.5296,2.4423,2.4537,2.4552,2.469,2.4727,2.4824,2.4863,2.4916,2.4962,2.508,2.5151,2.5179,2.5231,2.532,2.5398,2.5409,2.5441,2.5471,2.5478,2.5329,2.5309,2.5291,2.5264,2.5478,2.5478,2.5631,2.5632,2.5633]},{"header":{"parameterUnit":"m.s-1","parameterCategory":1,"la1":30.2991,"la2":30.254,"lo1":-89.0895,"lo2":-89.0444,"dy":0.0017,"dx":0.0017,"nx":28,"ny":28,"refTime":"2025-07-08T09:00:00:Z","depth":0,"parameterNumber":3,"parameterNumberName":"V-component_of_WINDS"},"data":[0,0,0,0,0,0,0,0,0,0,0,0,0,0,0,0,0,0,0,0,0,0,0,0,0,0,0,0,0,0,0,0,0,0,0,0,0,0,0,0,0,0,0,0,0,0,0,0,0,0,0,0,0,0,0,0,0,0,-0.8426,-0.8427,0,-0.854,-0.8541,-0.8543,-0.8641,-0.8642,-0.8643,-0.8644,-0.8756,-0.8758,-0.876,0,0,0,0,0,0,0,0,0,0,0,0,0,-0.8289,-0.8291,-0.8426,-0.8427,-0.8429,-0.854,-0.8541,-0.8543,-0.8641,-0.8642,-0.8643,-0.8645,-0.8755,-0.8758,-0.876,0,0,0,0,0,0,0,0,0,0,0,0,0,-0.837,-0.8291,-0.8425,-0.8491,-0.8498,-0.854,-0.8541,-0.8543,-0.864,-0.8642,-0.8644,-0.8645,-0.8755,-0.8757,-0.876,-0.8745,0,0,-0.8769,-0.877,0,0,0,0,0,0,0,0,-0.8365,-0.8375,-0.848,-0.8487,-0.8494,-0.8578,-0.8534,-0.8611,-0.864,-0.8586,-0.8644,-0.8646,-0.8695,-0.8703,-0.8721,-0.875,-0.8755,-0.8769,-0.8771,-0.8772,-0.8773,0,0,0,0,0,0,0,-0.8359,-0.837,-0.8471,-0.8481,-0.849,-0.8513,-0.8527,-0.8549,-0.863,-0.8591,-0.8598,-0.8611,-0.8699,-0.8717,-0.8724,-0.8756,-0.8769,-0.8772,-0.8774,-0.8775,-0.8778,-0.8777,0,0,0,0,0,0,-0.8344,-0.8365,-0.8467,-0.8474,-0.8433,-0.8514,-0.853,-0.8549,-0.863,-0.8644,-0.8609,-0.8615,-0.8712,-0.872,-0.8728,-0.8715,-0.8772,-0.8775,-0.8777,-0.878,-0.8778,-0.8776,0,0,0,0,0,0,-0.8341,-0.8352,-0.8463,-0.8422,-0.8438,-0.8515,-0.8537,-0.8551,-0.8569,-0.8644,-0.8658,-0.8613,-0.8713,-0.8724,-0.874,-0.872,-0.8776,-0.8779,-0.8782,-0.8779,-0.8777,-0.8687,0,0,0,0,0,0,-0.8337,-0.8351,-0.8346,-0.8421,-0.8439,-0.8473,-0.8536,-0.8552,-0.8574,-0.8583,-0.8651,-0.8664,-0.8716,-0.8735,-0.8743,-0.8725,-0.8781,-0.8784,-0.8781,-0.8778,-0.8692,-0.8682,-0.8673,0,0,0,0,0,-0.8331,-0.8315,-0.8345,-0.8357,-0.8436,-0.8472,-0.8482,-0.8543,-0.8572,-0.8568,-0.8616,-0.8662,-0.8721,-0.8736,-0.8746,-0.8728,-0.8785,-0.8782,-0.8778,-0.8696,-0.8684,-0.8673,0,0,0,0,0,0,-0.8234,-0.8326,-0.8361,-0.8369,-0.8412,-0.8489,-0.8485,-0.8528,-0.8563,-0.8569,-0.8642,-0.8657,-0.8664,-0.8698,-0.8713,-0.8717,-0.8759,-0.8757,-0.8694,-0.8683,-0.8673,-0.8664,-0.8784,0,0,0,0,0,-0.8213,-0.8237,-0.8316,-0.8315,-0.8335,-0.8406,-0.8424,-0.8468,-0.8515,-0.8533,-0.8583,-0.8625,-0.8654,-0.8671,-0.8701,-0.8698,-0.8714,-0.8691,-0.8681,-0.8673,-0.867,-0.867,-0.8661,-0.8764,-0.8764,-0.8764,0,0,-0.8171,-0.8224,-0.8234,-0.8297,-0.8336,-0.8356,-0.8421,-0.844,-0.8456,-0.8536,-0.8554,-0.8592,-0.8644,-0.8651,-0.8656,-0.8679,-0.8645,-0.8669,-0.8661,-0.8663,-0.8665,-0.8656,-0.8647,-0.8761,-0.8762,-0.8762,0,0,-0.8104,-0.8148,-0.8152,-0.819,-0.8248,-0.8296,-0.8297,-0.8368,-0.8396,-0.8416,-0.8477,-0.8496,-0.8544,-0.8579,-0.8603,-0.8551,-0.8594,-0.8559,-0.8507,-0.8507,-0.8499,-0.8492,-0.8472,-0.8464,-0.8556,-0.8555,-0.8555,0,-0.8043,-0.8079,-0.8147,-0.8164,-0.8189,-0.8265,-0.8269,-0.8302,-0.8366,-0.8381,-0.8407,-0.8469,-0.851,-0.8525,-0.8513,-0.853,-0.8532,-0.855,-0.8495,-0.8489,-0.8483,-0.8465,-0.8457,-0.8551,-0.8551,-0.8552,-0.8552,0,-0.8,-0.8024,-0.802,-0.8082,-0.8108,-0.8117,-0.8187,-0.8204,-0.8246,-0.829,-0.8309,-0.8361,-0.8403,-0.8411,-0.8451,-0.8432,-0.8445,-0.8482,-0.8525,-0.8467,-0.8451,-0.8445,-0.8544,-0.8546,-0.8547,-0.8548,0,0,-0.7872,-0.7974,-0.7971,-0.8001,-0.8072,-0.8091,-0.8104,-0.8148,-0.816,-0.8203,-0.8214,-0.8254,-0.8289,-0.8316,-0.8362,-0.8362,-0.8316,-0.8399,-0.8402,-0.838,-0.8296,-0.8266,-0.8257,-0.8346,-0.8345,-0.8344,-0.8291,0,-0.7815,-0.7844,-0.7907,-0.7916,-0.7938,-0.8012,-0.8023,-0.8067,-0.811,-0.8134,-0.8181,-0.8207,-0.8252,-0.8269,-0.8273,-0.8321,-0.83,-0.8326,-0.8356,-0.8356,-0.8338,-0.8249,-0.8217,-0.8164,-0.8286,-0.8285,-0.8284,0,-0.7751,-0.7791,-0.7803,-0.7873,-0.7885,-0.7894,-0.7939,-0.7962,-0.8014,-0.8045,-0.8076,-0.8126,-0.8143,-0.8186,-0.8209,-0.8225,-0.8242,-0.8267,-0.8267,-0.8269,-0.8314,-0.8247,-0.8149,-0.814,-0.8275,-0.8276,-0.8277,0,-0.7654,-0.7711,-0.7725,-0.7749,-0.7832,-0.7836,-0.7871,-0.7925,-0.7947,-0.7986,-0.8001,-0.804,-0.8061,-0.8091,-0.815,-0.8176,-0.8166,-0.8214,-0.8191,-0.8189,-0.8183,-0.8182,-0.8083,-0.8197,-0.8197,-0.8197,-0.8198,0,-0.7582,-0.7586,-0.7683,-0.7691,-0.7697,-0.777,-0.7774,-0.7815,-0.7863,-0.7879,-0.7946,-0.7959,-0.8039,-0.8062,-0.8109,-0.812,-0.813,-0.8154,-0.8166,-0.8146,-0.8143,-0.8156,-0.816,-0.8196,-0.8196,-0.8196,-0.8197,0,-0.7473,-0.7539,-0.7559,-0.7637,-0.7657,-0.7658,-0.7724,-0.7734,-0.7782,-0.7802,-0.7811,-0.7885,-0.7916,-0.7979,-0.8027,-0.8059,-0.8058,-0.8081,-0.804,-0.8047,-0.802,-0.8021,-0.7924,-0.7915,-0.8036,-0.8035,-0.8034,0,-0.7422,-0.7427,-0.7506,-0.7523,-0.7556,-0.7582,-0.7606,-0.7678,-0.7699,-0.776,-0.7762,-0.7798,-0.7831,-0.7876,-0.7933,-0.797,-0.7992,-0.7956,-0.7998,-0.7978,-0.7989,-0.7987,-0.7987,-0.7946,-0.7944,-0.7943,-0.7942,0,-0.7323,-0.7356,-0.7388,-0.7431,-0.7458,-0.7495,-0.7536,-0.7546,-0.7628,-0.7648,-0.7681,-0.7707,-0.7757,-0.7791,-0.7837,-0.7871,-0.7919,-0.7929,-0.7925,-0.7904,-0.7879,-0.789,-0.8012,-0.793,-0.7931,-0.7932,-0.7932,-0.7933,-0.724,-0.7247,-0.7305,-0.7338,-0.7377,-0.7414,-0.7428,-0.7478,-0.7508,-0.7555,-0.7596,-0.7625,-0.7677,-0.7744,-0.7775,-0.7798,-0.7822,-0.7817,-0.7815,-0.7812,-0.7803,-0.7878,-0.7807,-0.7807,-0.7808,-0.7808,-0.7808,0,-0.7142,-0.7184,-0.7214,-0.727,-0.7296,-0.7343,-0.7391,-0.7409,-0.7434,-0.748,-0.7512,-0.7549,-0.7584,-0.7644,-0.7683,-0.769,-0.7713,-0.7697,-0.7696,-0.7703,-0.778,-0.7779,-0.7678,-0.7678,-0.7678,-0.7678,-0.7678,-0.7678,-0.7095,-0.711,-0.7149,-0.7184,-0.7225,-0.7256,-0.7279,-0.7313,-0.735,-0.739,-0.7419,-0.746,-0.7511,-0.7555,-0.7588,-0.7605,-0.7615,-0.7592,-0.7615,-0.7686,-0.7698,-0.7709,-0.7708,-0.7594,-0.7594,-0.7536,-0.7536,-0.7535]}]]